Regional Weather Roundup
Issued by NWS

Home | Current Version | Previous Version | Graphics & Text | Print | Product List | Glossary On
Versions: 1 2 3 4 5 6 7 8 9 10 11 12 13 14 15 16 17 18 19 20 21 22 23 24 25 26 27 28 29 30 31 32 33 34 35 36 37 38 39 40 41 42 43 44 45 46 47 48 49 50
000
ASUS43 KMKX 011200
RWRWI

WISCONSIN REGIONAL WEATHER ROUNDUP
NATIONAL WEATHER SERVICE MILWAUKEE/SULLIVAN WI
700 AM CDT WED JUL 01 2015

NOTE: "FAIR" INDICATES FEW OR NO CLOUDS BELOW 12,000 FEET WITH NO
SIGNIFICANT WEATHER AND/OR OBSTRUCTIONS TO VISIBILITY.

WIZ001-002-006>008-014>016-023>028-011300-
NORTHWEST WISCONSIN

CITY           SKY/WX    TMP DP  RH WIND       PRES   REMARKS
SUPERIOR ARPT  MOSUNNY   45  45 100 CALM      30.02R
ASHLAND        MOSUNNY   47  47 100 CALM      30.03R
6HR MIN TEMP:  39; 6HR MAX TEMP:  47;

HAYWARD        MOSUNNY   46  44  93 CALM      30.03R
6HR MIN TEMP:  42; 6HR MAX TEMP:  48;

SIREN          PTSUNNY   48  46  93 CALM      30.02S
CUMBERLAND     MOSUNNY   48  46  93 CALM      30.02R
RICE LAKE      MOSUNNY   49  48  95 CALM      30.04R
CHETEK         MOSUNNY   49  48  96 CALM      30.03R
LADYSMITH      MOSUNNY   47  46  95 CALM      30.04R
EAU CLAIRE     NOT AVBL
MENOMONIE      MOSUNNY   52  48  87 CALM      30.01S
NEW RICHMOND   PTSUNNY   52  49  87 E3        30.00R
OSCEOLA        PTSUNNY   55  48  78 CALM      30.03R
$$

WIZ003>005-009-010-017-018-011300-
NORTH CENTRAL WISCONSIN

CITY           SKY/WX    TMP DP  RH WIND       PRES   REMARKS
MANITOWISH WTR FOG       42  42 100 CALM      30.02R VSB 3/4
ARBOR VITAE    MOSUNNY   44  43  95 N3        30.02S
WOODRUFF       MOSUNNY   44  43  95 N3        30.02S
RHINELANDER    MOSUNNY   47  43  86 N3        30.02R
6HR MIN TEMP:  37; 6HR MAX TEMP:  47;

EAGLE RIVER    SUNNY     42  42 100 CALM      30.01S
LAND O LAKES   SUNNY     42  42 100 CALM      30.02S
PHILLIPS       PTSUNNY   43  43  99 CALM      30.03R
6HR MIN TEMP:  38; 6HR MAX TEMP:  43;

TOMAHAWK       MOSUNNY   38  37  97 CALM      30.02R
MEDFORD        SUNNY     43  42  97 CALM      30.02R
MERRILL        SUNNY     42  42 100 CALM      30.01R
$$

WIZ029-030-035-036-043>047-011300-
CENTRAL WISCONSIN

CITY           SKY/WX    TMP DP  RH WIND       PRES   REMARKS
WAUSAU         SUNNY     49  46  90 NW5       29.99R
6HR MIN TEMP:  46; 6HR MAX TEMP:  51;

MOSINEE        NOT AVBL
MARSHFIELD     SUNNY     50  45  83 N3        30.01R
6HR MIN TEMP:  45; 6HR MAX TEMP:  53;

STEVENS POINT  MOSUNNY   45  43  94 NW6       30.00R
WAUPACA        SUNNY     51  46  85 CALM      29.98S
WAUTOMA        NOT AVBL
WISC RAPIDS    SUNNY     52  47  83 N6        30.01R
6HR MIN TEMP:  45; 6HR MAX TEMP:  54;

CAMP DOUGLAS   FOG       43  43 100 W3        30.00R VSB 1/4
$$

WIZ011>013-019>022-031-037>040-048>050-011300-
NORTHEAST WISCONSIN

CITY           SKY/WX    TMP DP  RH WIND       PRES   REMARKS
ANTIGO         MOSUNNY   44  43  98 N5        30.00R
SHAWANO        SUNNY     49  44  81 N3        29.98S
OCONTO         CLOUDY    48  46  90 N7        29.98R
6HR MIN TEMP:  47; 6HR MAX TEMP:  51;

STURGEON BAY   CLOUDY    52  46  82 N9        29.98S
6HR MIN TEMP:  52; 6HR MAX TEMP:  54;

GREEN BAY      CLOUDY    51  45  79 N9        29.97S
6HR MIN TEMP:  48; 6HR MAX TEMP:  51;

MANITOWOC      NOT AVBL
APPLETON       PTSUNNY   48  43  81 N7        29.97S
CLINTONVILLE   SUNNY     48  43  81 N5        29.97S
OSHKOSH        MOSUNNY   53  44  71 N10       29.97R
6HR MIN TEMP:  49; 6HR MAX TEMP:  55;

$$

WIZ032>034-041-042-053>061-011300-
SOUTHWEST WISCONSIN

CITY           SKY/WX    TMP DP  RH WIND       PRES   REMARKS
LA CROSSE      MOSUNNY   56  51  84 CALM      29.99R
6HR MIN TEMP:  53; 6HR MAX TEMP:  61;

SPARTA         MOSUNNY   44  43  97 CALM      30.00S
VIROQUA        MOSUNNY   53  51  95 NE7       29.98S
BOSCOBEL       SUNNY     55  54  96 CALM      29.98R
6HR MIN TEMP:  51; 6HR MAX TEMP:  55;

PRAIRIE DU CHI SUNNY     54  53  95 CALM      29.97R
PLATTEVILLE    PTSUNNY   57  56  96 NE3       29.97R
$$

WIZ056-057-062-063-064-067-068-011300-
SOUTH CENTRAL WISCONSIN

CITY           SKY/WX    TMP DP  RH WIND       PRES   REMARKS
REEDSBURG      SUNNY     52  48  87 CALM      29.99R
BARABOO/DELLS  SUNNY     52  46  82 CALM      29.98S
LONE ROCK      MOSUNNY   56  50  80 NE3       29.99R
MINERAL POINT  CLOUDY    59  54  82 NE6       29.97R
MADISON        PTSUNNY   56  46  69 N8        29.98R
6HR MIN TEMP:  56; 6HR MAX TEMP:  61;

MIDDLETON      CLOUDY    57  47  68 NE8       29.98R
WATERTOWN      SUNNY     54  51  90 NE5       29.96R
MONROE         CLOUDY    57  55  94 E3        29.96R
JANESVILLE     NOT AVBL
$$

WIZ051-052-058>065-066-070>072-011300-
SOUTHEAST WISCONSIN

CITY           SKY/WX    TMP DP  RH WIND       PRES   REMARKS
MILWAUKEE      MOSUNNY   55  47  74 NW8       29.96S
6HR MIN TEMP:  52; 6HR MAX TEMP:  55;

WAUKESHA       SUNNY     54  46  76 N7        29.98R
MILWAUKEE/TIMM SUNNY     54  45  71 N7        29.96S
RACINE         SUNNY     55  50  83 NW5       29.97R
6HR MIN TEMP:  52; 6HR MAX TEMP:  55;

BURLINGTON     CLOUDY    53  51  94 CALM      29.96R
KENOSHA        PTSUNNY   55  51  86 CALM      29.97R
6HR MIN TEMP:  50; 6HR MAX TEMP:  55;

FOND DU LAC    MOSUNNY   53  45  74 NW10      29.96F
6HR MIN TEMP:  49; 6HR MAX TEMP:  59;

SHEBOYGAN      CLOUDY    52  47  83 N6        29.95F
6HR MIN TEMP:  48; 6HR MAX TEMP:  55;

WEST BEND      SUNNY     52  45  76 N5        29.96F
JUNEAU         SUNNY     51  46  83 N6        29.97S
$$

LSZ147-162-011300-
LAKE SUPERIOR

STATION/POSITION TIME  TEMP    WIND        PRES    WAVE
                       AIR SEA DIR/SP/G            HT/PER
                 (UTC) (F)     (DEG/KT/KT) (MB)    (FT/S)
W MID LAKE BUOY  1050   42 38  180/  6/  6 1016.9R   1/ 5
DEVILS ISLAND    1100   52     130/  6/  7 1016.9R
SAXON HARBOR     1100   43     180/  4/  6 1016.3
$$

LMZ867-665-643>646-011300-
LAKE MICHIGAN

STATION/POSITION TIME  TEMP    WIND        PRES    WAVE
                       AIR SEA DIR/SP/G            HT/PER
                 (UTC) (F)     (DEG/KT/KT) (MB)    (FT/S)
CHAMBERS ISLAND  1100   52     330/ 12/ 15 1014.6R
N MID LAKE BUOY  1050   45 40  330/  8/ 10 1013.4R   2/ 4
NORTHPORT PIER   1100   52     340/ 15/ 18 1014.2R
SISTER BAY       1114   51      10/ 11/ 16   N/A
ALGOMA LAKESHORE 1055          320/  4/  6   N/A
KEWAUNEE LAKESHO 1100   54     330/  4/  7 1013.6R
SHEBOYGAN LAKESH 1100   52     300/  8/  9 1014.8R
PORT WASHINGTON  1140   55     320/  6/  8 1014.9R
ATWATER BUOY     1100   55     320/ 10/ 12 1015.5R
MILWAUKEE LAKESH 1100   55     330/  7/ 10   N/A
KENOSHA   LAKESH 1100   55     310/  5/  6 1014.2S
$$

TC  - TEMPERATURE IN CELSIUS
VSB - VISIBILITY IN STATUTE MILES
WCI - WIND CHILL INDEX
HX  - HEAT INDEX




USA.gov is the U.S. government's official web portal to all federal, state and local government web resources and services.